Torna al catalogo

STARLINK-33961

AttivoComunicazioniVLEO
NORAD 64047·PAYLOAD·🇺🇸 United States

Lanciato May 16, 2025 da Vandenberg Space Force Base

Loading…

Prossimi Passaggi (prossime 24 ore)

TLE

AggiornatoSource: CelesTrak SupGP

Epoca: Sep 15, 2026, 03:27 UTC

1 64047C 25102AB  26258.14423611  .00095948  00000+0  33376-2 0  2582
2 64047  70.0008 355.1969 0003223 267.4866 324.6281 15.29532072    18

Traccia STARLINK-33961 in tempo reale con AllMySat

Download on the App Store